Regional Weather Roundup
Issued by NWS Little Rock, AR

Home | Current Version | Previous Version | Graphics & Text | Print | Product List | Glossary On
Versions: 1 2 3 4 5 6 7 8 9 10 11 12 13 14 15 16 17 18 19 20 21 22 23 24 25 26 27 28 29 30 31 32 33 34 35 36 37 38 39 40 41 42 43 44 45 46 47 48 49 50
000
ASUS44 KLZK 280105
RWRLZK

WEATHER ROUNDUP FOR ARKANSAS
NATIONAL WEATHER SERVICE LITTLE ROCK AR
800 PM CDT SUN JUL 27 2014

NOTE: "FAIR" INDICATES FEW OR NO CLOUDS BELOW 12,000 FEET WITH NO
SIGNIFICANT WEATHER AND/OR OBSTRUCTIONS TO VISIBILITY.

ARZ001-003-010-029-280200-
NORTHWEST ARKANSAS

CITY           SKY/WX    TMP DP  RH WIND       PRES   REMARKS
FAYETTEVILLE   CLOUDY    80  58  46 NW7       30.05F
FORT SMITH     MOCLDY    91  68  46 N8        29.98F HX  95
HARRISON       CLOUDY    80  64  58 NW9       30.05R
BENTONVILLE    CLOUDY    81  57  44 CALM      30.06F
ROGERS         CLOUDY    81  60  48 E5        30.05F
SILOAM SPGS    CLOUDY    79  61  53 E3        30.04F
HIGHFILL       CLOUDY    81  59  47 CALM      30.04F
SPRINGDALE     PTCLDY    82  54  36 CALM      30.07F
$$

ARZ004-005-016-280200-
NORTH CENTRAL ARKANSAS

CITY           SKY/WX    TMP DP  RH WIND       PRES   REMARKS
BATESVILLE     MOCLDY    84  77  79 W3        29.96S HX  94
FLIPPIN        CLOUDY    84  64  51 NW9       30.00R HX  86
MTN HOME       CLOUDY    83  65  54 VRB5      29.99S HX  85
$$

ARZ040-041-280200-
WEST CENTRAL ARKANSAS

CITY           SKY/WX    TMP DP  RH WIND       PRES   REMARKS
MENA             N/A     88  79  74 CALM      30.03R HX 102
MOUNT IDA      CLOUDY    83  76  79 VRB3      29.98F HX  91
$$

ARZ009-017-025-026-028-280200-
NORTHEAST ARKANSAS

CITY           SKY/WX    TMP DP  RH WIND       PRES   REMARKS
CORNING        LGT RAIN  86  73  66 W7        29.92S HX  93
JONESBORO      MOCLDY    85  76  74 W7        29.92S HX  94
NEWPORT        MOCLDY    87  78  74 W5        29.95S HX  99
WALNUT RIDGE   MOCLDY    86  75  70 W8        29.92S HX  95
BLYTHEVILLE    MOCLDY    86  77  74 W8        29.91S HX  97
$$

ARZ022-023-033-042-044-280200-
CENTRAL ARKANSAS

CITY           SKY/WX    TMP DP  RH WIND       PRES   REMARKS
LITTLE ROCK    MOCLDY    89  78  70 VRB3      29.96S HX 103
N LITTLE ROCK  MOCLDY    87  81  82 CALM      29.96S HX 103
JACKSONVILLE   PTCLDY    89  80  75 W3        29.96S HX 106
SEARCY         PTCLDY    89  80  74 W5        29.96S HX 105
HOT SPRINGS    MOCLDY    79  76  90 NE5       29.97F
RUSSELLVILLE   MOCLDY    90  77  65 NW5       29.96F HX 103
CLINTON        FAIR      88  75  66 CALM      29.98F HX  97
$$

ARZ036-280200-
EAST ARKANSAS

CITY           SKY/WX    TMP DP  RH WIND       PRES   REMARKS
WEST MEMPHIS   MOCLDY    88  79  74 VRB5      29.92S HX 103
$$

ARZ050-053-066-070-073-280200-
SOUTHWEST ARKANSAS

CITY           SKY/WX    TMP DP  RH WIND       PRES   REMARKS
ARKADELPHIA    FAIR      88  81  79 CALM      29.96F HX 106
CAMDEN         MOCLDY    86  75  70 SW3       29.96F HX  95
TEXARKANA      MOCLDY    90  75  61 S6        29.97F HX 100
EL DORADO      PTCLDY    86  78  77 CALM      29.99S HX  98
DE QUEEN       MOCLDY    89  79  72 CALM      29.96S HX 104
$$

ARZ056-057-069-280200-
SOUTHEAST ARKANSAS

CITY           SKY/WX    TMP DP  RH WIND       PRES   REMARKS
PINE BLUFF     MOCLDY    88  77  69 SW6       29.96F HX 100
STUTTGART      MOCLDY    88  79  74 W6        29.96S HX 102
MONTICELLO     MOCLDY    87  75  67 W5        29.97S HX  96

$$




USA.gov is the U.S. government's official web portal to all federal, state and local government web resources and services.